• en Belgique
  • Liste des pays
  • À 7 jours
  • Température de l'eau
  • Carte satellitaire
  • Carte météo
  • Widgets météo
  • user-avatar
    Se connecter

    Météo par heure à Liège

    Ce jour, 19 Février, Lundi

    Heure Température Précipitation Vent Pression Humidité
    00:00 -2°C° 0 mm 2 m/s 758 mmHg 85%
    01:00 -2°C° 0 mm 2 m/s 757 mmHg 84%
    02:00 -3°C° 0 mm 2 m/s 757 mmHg 83%
    03:00 -3°C° 0 mm 2 m/s 756 mmHg 83%
    04:00 -2°C° 0 mm 2 m/s 756 mmHg 81%
    05:00 -2°C° 0 mm 2 m/s 756 mmHg 79%
    06:00 -2°C° 0 mm 2 m/s 756 mmHg 77%
    07:00 -1°C° 0 mm 2 m/s 756 mmHg 73%
    08:00 +1°C° 0 mm 2 m/s 756 mmHg 69%
    09:00 +2°C° 0 mm 2 m/s 755 mmHg 65%
    10:00 +3°C° 0 mm 2 m/s 755 mmHg 62%
    11:00 +4°C° 0 mm 2 m/s 755 mmHg 58%
    12:00 +6°C° 0 mm 1 m/s 754 mmHg 55%
    13:00 +6°C° 0 mm 1 m/s 754 mmHg 56%
    14:00 +6°C° 0 mm 1 m/s 754 mmHg 56%
    15:00 +7°C° 0 mm 1 m/s 753 mmHg 57%
    16:00 +6°C° 0 mm 1 m/s 753 mmHg 61%
    17:00 +5°C° 0 mm 1 m/s 753 mmHg 66%
    18:00 +4°C° 0 mm 1 m/s 753 mmHg 70%
    19:00 +3°C° 0 mm 1 m/s 753 mmHg 71%
    20:00 +3°C° 0 mm 1 m/s 753 mmHg 73%
    21:00 +3°C° 0 mm 1 m/s 753 mmHg 74%
    22:00 +3°C° 0 mm 1 m/s 753 mmHg 76%
    23:00 +3°C° 0 mm 1 m/s 753 mmHg 77%

    Demain, 20 Février, Mardi

    Heure Température Précipitation Vent Pression Humidité
    00:00 +2°C° 0 mm 1 m/s 753 mmHg 78%
    01:00 +2°C° 0 mm 1 m/s 753 mmHg 79%
    02:00 +1°C° 0 mm 1 m/s 753 mmHg 80%
    03:00 +1°C° 0 mm 1 m/s 752 mmHg 82%
    04:00 +1°C° 0 mm 1 m/s 753 mmHg 82%
    05:00 0°C° 0 mm 1 m/s 753 mmHg 82%
    06:00 0°C° 0 mm 1 m/s 753 mmHg 82%
    07:00 +1°C° 0 mm 1 m/s 753 mmHg 76%
    08:00 +2°C° 0 mm 1 m/s 753 mmHg 71%
    09:00 +4°C° 0 mm 1 m/s 754 mmHg 66%
    10:00 +4°C° 0 mm 2 m/s 754 mmHg 62%
    11:00 +5°C° 0 mm 2 m/s 754 mmHg 57%
    12:00 +6°C° 0 mm 2 m/s 754 mmHg 53%
    13:00 +6°C° 0 mm 2 m/s 754 mmHg 54%
    14:00 +6°C° 0 mm 2 m/s 754 mmHg 55%
    15:00 +5°C° 0 mm 3 m/s 754 mmHg 56%
    16:00 +3°C° 0 mm 3 m/s 754 mmHg 61%
    17:00 +2°C° 0 mm 3 m/s 754 mmHg 67%
    18:00 +1°C° 0 mm 2 m/s 755 mmHg 73%
    19:00 +1°C° 0 mm 2 m/s 755 mmHg 74%
    20:00 -1°C° 0 mm 3 m/s 756 mmHg 75%
    21:00 -1°C° 0 mm 3 m/s 756 mmHg 77%
    22:00 -2°C° 0 mm 3 m/s 757 mmHg 79%
    23:00 -2°C° 0 mm 2 m/s 757 mmHg 80%

    Après-demain, 21 Février, Mercredi

    Heure Température Précipitation Vent Pression Humidité
    00:00 -2°C° 0 mm 2 m/s 757 mmHg 82%
    01:00 -2°C° 0 mm 2 m/s 758 mmHg 83%
    02:00 -3°C° 0 mm 2 m/s 758 mmHg 84%
    03:00 -3°C° 0 mm 2 m/s 758 mmHg 85%
    04:00 -3°C° 0 mm 2 m/s 758 mmHg 86%
    05:00 -3°C° 0 mm 2 m/s 758 mmHg 86%
    06:00 -3°C° 0 mm 2 m/s 758 mmHg 86%
    07:00 -2°C° 0 mm 3 m/s 758 mmHg 80%
    08:00 -1°C° 0 mm 3 m/s 759 mmHg 74%
    09:00 0°C° 0 mm 3 m/s 759 mmHg 68%
    10:00 +1°C° 0 mm 3 m/s 759 mmHg 63%
    11:00 +3°C° 0 mm 3 m/s 758 mmHg 57%
    12:00 +4°C° 0 mm 4 m/s 758 mmHg 52%
    13:00 +4°C° 0 mm 4 m/s 758 mmHg 52%
    14:00 +4°C° 0 mm 4 m/s 757 mmHg 52%
    15:00 +4°C° 0 mm 4 m/s 757 mmHg 53%
    16:00 +1°C° 0 mm 4 m/s 757 mmHg 58%
    17:00 +1°C° 0 mm 3 m/s 757 mmHg 64%
    18:00 -1°C° 0 mm 3 m/s 757 mmHg 70%
    19:00 -1°C° 0 mm 3 m/s 757 mmHg 71%
    20:00 -2°C° 0 mm 3 m/s 757 mmHg 73%
    21:00 -2°C° 0 mm 3 m/s 757 mmHg 74%
    22:00 -2°C° 0 mm 3 m/s 757 mmHg 75%
    23:00 -4°C° 0 mm 3 m/s 757 mmHg 76%

    22 Février, Jeudi

    Heure Température Précipitation Vent Pression Humidité
    00:00 -4°C° 0 mm 3 m/s 757 mmHg 77%
    01:00 -4°C° 0 mm 3 m/s 757 mmHg 78%
    02:00 -4°C° 0 mm 3 m/s 756 mmHg 78%
    03:00 -4°C° 0 mm 3 m/s 756 mmHg 78%
    04:00 -4°C° 0 mm 3 m/s 756 mmHg 78%
    05:00 -4°C° 0 mm 4 m/s 756 mmHg 78%
    06:00 -4°C° 0 mm 4 m/s 756 mmHg 78%
    07:00 -3°C° 0 mm 4 m/s 756 mmHg 73%
    08:00 -2°C° 0 mm 5 m/s 756 mmHg 67%
    09:00 -2°C° 0 mm 6 m/s 756 mmHg 62%
    10:00 -1°C° 0 mm 6 m/s 756 mmHg 55%
    11:00 +1°C° 0 mm 6 m/s 756 mmHg 49%
    12:00 +2°C° 0 mm 6 m/s 756 mmHg 43%
    13:00 +2°C° 0 mm 6 m/s 755 mmHg 43%
    14:00 +2°C° 0 mm 6 m/s 755 mmHg 43%
    15:00 +2°C° 0 mm 6 m/s 755 mmHg 43%
    16:00 +1°C° 0 mm 6 m/s 755 mmHg 49%
    17:00 -1°C° 0 mm 5 m/s 755 mmHg 54%
    18:00 -2°C° 0 mm 5 m/s 755 mmHg 59%
    19:00 -2°C° 0 mm 5 m/s 756 mmHg 61%
    20:00 -4°C° 0 mm 5 m/s 756 mmHg 63%
    21:00 -4°C° 0 mm 5 m/s 756 mmHg 66%
    22:00 -4°C° 0 mm 5 m/s 756 mmHg 67%
    23:00 -4°C° 0 mm 5 m/s 756 mmHg 69%

    23 Février, Vendredi

    Heure Température Précipitation Vent Pression Humidité
    00:00 -5°C° 0 mm 5 m/s 756 mmHg 71%
    01:00 -5°C° 0 mm 5 m/s 756 mmHg 71%
    02:00 -5°C° 0 mm 5 m/s 755 mmHg 71%
    03:00 -5°C° 0 mm 5 m/s 755 mmHg 71%
    04:00 -5°C° 0 mm 5 m/s 755 mmHg 70%
    05:00 -6°C° 0 mm 5 m/s 755 mmHg 69%
    06:00 -6°C° 0 mm 5 m/s 755 mmHg 68%
    07:00 -5°C° 0 mm 5 m/s 756 mmHg 62%
    08:00 -4°C° 0 mm 6 m/s 756 mmHg 55%
    09:00 -4°C° 0 mm 6 m/s 756 mmHg 48%
    10:00 -2°C° 0 mm 6 m/s 756 mmHg 44%
    11:00 -1°C° 0 mm 6 m/s 756 mmHg 40%
    12:00 +1°C° 0 mm 6 m/s 756 mmHg 36%
    13:00 +1°C° 0 mm 6 m/s 756 mmHg 36%
    14:00 +1°C° 0 mm 6 m/s 756 mmHg 36%
    15:00 0°C° 0 mm 7 m/s 755 mmHg 37%
    16:00 -1°C° 0 mm 6 m/s 756 mmHg 40%
    17:00 -2°C° 0 mm 6 m/s 756 mmHg 44%
    18:00 -2°C° 0 mm 5 m/s 756 mmHg 48%
    19:00 -4°C° 0 mm 5 m/s 757 mmHg 50%
    20:00 -4°C° 0 mm 5 m/s 757 mmHg 52%
    21:00 -5°C° 0 mm 5 m/s 758 mmHg 54%
    22:00 -5°C° 0 mm 5 m/s 758 mmHg 53%
    23:00 -5°C° 0 mm 5 m/s 758 mmHg 51%

    24 Février, Samedi

    Heure Température Précipitation Vent Pression Humidité
    00:00 -5°C° 0 mm 5 m/s 758 mmHg 50%
    01:00 -6°C° 0 mm 5 m/s 758 mmHg 48%
    02:00 -6°C° 0 mm 5 m/s 759 mmHg 46%
    03:00 -6°C° 0 mm 5 m/s 759 mmHg 43%
    04:00 -6°C° 0 mm 5 m/s 759 mmHg 41%
    05:00 -6°C° 0 mm 5 m/s 759 mmHg 39%
    06:00 -6°C° 0 mm 5 m/s 759 mmHg 37%
    07:00 -5°C° 0 mm 6 m/s 760 mmHg 35%
    08:00 -4°C° 0 mm 6 m/s 760 mmHg 32%
    09:00 -4°C° 0 mm 7 m/s 761 mmHg 29%
    10:00 -2°C° 0 mm 7 m/s 761 mmHg 29%
    11:00 -1°C° 0 mm 7 m/s 761 mmHg 29%
    12:00 0°C° 0 mm 7 m/s 760 mmHg 28%
    13:00 0°C° 0 mm 7 m/s 760 mmHg 29%
    14:00 +1°C° 0 mm 6 m/s 760 mmHg 31%
    15:00 +1°C° 0 mm 6 m/s 760 mmHg 32%
    16:00 -1°C° 0 mm 6 m/s 760 mmHg 35%
    17:00 -2°C° 0 mm 6 m/s 761 mmHg 39%
    18:00 -4°C° 0 mm 5 m/s 761 mmHg 43%
    19:00 -4°C° 0 mm 5 m/s 761 mmHg 45%
    20:00 -5°C° 0 mm 5 m/s 761 mmHg 47%
    21:00 -5°C° 0 mm 5 m/s 762 mmHg 49%
    22:00 -5°C° 0 mm 5 m/s 762 mmHg 52%
    23:00 -6°C° 0 mm 5 m/s 762 mmHg 55%
    Voir plus